Regional Weather Roundup
Issued by NWS Wakefield, VA

Home | Current Version | Previous Version | Text Only | Print | Product List | Glossary On
Versions: 1 2 3 4 5 6 7 8 9 10 11 12 13 14 15 16 17 18 19 20 21 22 23 24 25 26 27
000
ASUS41 KAKQ 211510
RWRAKQ

REGIONAL WEATHER ROUNDUP
NATIONAL WEATHER SERVICE WAKEFIELD VA
1100 AM EDT MON APR 21 2014

Note: "fair" indicates few or no clouds below 12,000 feet with no
significant weather and/or obstructions to visibility. * = Denotes
station may not report precipitation (e.g., rain,snow,etc.),
thunder or fog.

VAZ042-051-052>054-056-211600-
NORTHERN VIRGINIA

CITY           SKY/WX    TMP DP  RH WIND       PRES   REMARKS
WASH NATIONAL  PTSUNNY   57  34  41 CALM      30.19F
DULLES         MOSUNNY   54  24  31 CALM      30.18F
FORT BELVOIR   SUNNY     57  36  44 VRB1      30.19S
QUANTICO       MOSUNNY   54  38  54 E7        30.20S
FREDERICKSBRG* SUNNY     57  41  54 E3        30.17F
STAFFORD*      SUNNY     57  39  49 NE5       30.22S
WARRENTON      SUNNY     57  34  41 NW5       30.18S
CULPEPER*      SUNNY     59  18  20 NE3       30.18F
MANASSAS*      NOT AVBL
LEESBURG*      SUNNY     55  30  38 CALM      30.19F
WINCHESTER     SUNNY     55  36  47 CALM      30.15F
$$

VAZ048-049-060>072-079>083-211600-
CENTRAL AND SOUTH CENTRAL VIRGINIA...AND NORTH CENTRAL NORTH CAROLINA

CITY           SKY/WX    TMP DP  RH WIND       PRES   REMARKS
RICHMOND       MOSUNNY   59  39  47 NE6       30.16F
CHESTERFIELD*  NOT AVBL
HANOVER        SUNNY     57  40  52 VRB7      30.18F
TAPPAHANNOCK*  SUNNY     58  40  51 N3        30.16F
CHARLOTTSVILLE SUNNY     56  30  37 NE5       30.16F
ORANGE*        SUNNY     55  32  41 N3        30.18F
LOUISA*        SUNNY     57  30  35 CALM      30.15F
FARMVILLE*     SUNNY     61  28  29 E5        30.15F
SOUTH HILL*    SUNNY     59  41  51 N7        30.20F
ROANOKE RAPIDS SUNNY     61  45  55 N13       30.13F
RALEIGH        MOSUNNY   57  38  48 VRB5      30.16S
$$

VAZ088>098-211600-
SOUTHEAST VIRGINIA

CITY           SKY/WX    TMP DP  RH WIND       PRES   REMARKS
NORFOLK        CLOUDY    51  46  83 N13       30.13S
VIRGINIA BEACH CLOUDY    53  46  77 NE15      30.12S HAZE
NORFOLK NAVAL  PTSUNNY   53  45  74 N15       30.15S
WEST POINT*    SUNNY     62  42  48 N8        30.16F
NEWPORT NEWS   SUNNY     62  47  57 N10       30.13F
LANGLEY AFB    SUNNY     56  48  76 NE12      30.14S
FORT EUSTIS    SUNNY     59  49  69 VRB6      30.11F
WILLIAMSBURG*  SUNNY     63  48  59 NE7       30.14F
FRANKLIN*      SUNNY     61  46  59 NE10      30.13S
WAKEFIELD      SUNNY     58  44  60 N8        30.14F
$$

VAZ020-022-025-037-045-211600-
WESTERN AND SOUTHWEST VIRGINIA

CITY           SKY/WX    TMP DP  RH WIND       PRES   REMARKS
STAUNTON*      SUNNY     55  35  46 CALM      30.17F
HOT SPRINGS VA SUNNY     59  28  31 W5        30.21R
LYNCHBURG      SUNNY     61  31  32 NE3       30.17F
DANVILLE       SUNNY     58  29  33 VRB3      30.17F
MARTINSVILLE   SUNNY     60  37  42 CALM      30.19F
ROANOKE        MOSUNNY   59  36  42 CALM      30.17F
BLACKSBURG     SUNNY     57  39  51 CALM      30.18F
DUBLIN*        SUNNY     58  38  47 CALM      30.17F
MARION*        SUNNY     63  31  30 SW9G17    30.18F
HILLSVILLE*    SUNNY     59  27  29 CALM      30.19F
RICHLANDS*     SUNNY     65  34  30 CALM      30.16F
WISE*          SUNNY     64  32  29 SW9       30.17S
ABINGDON*      SUNNY     64  32  30 W8        30.17F
$$

MDZ021>025-VAZ099-100-211600-
SOUTHERN MARYLAND AND THE DELMARVA PENINSULA

CITY           SKY/WX    TMP DP  RH WIND       PRES   REMARKS
PATUXENT RIVER MOSUNNY   55  40  56 VRB7      30.16F
BAY BRIDGE APT SUNNY     50  34  53 N7        30.19S
LEONARDTOWN    SUNNY     55  41  58 NE6       30.18S
DOVER          SUNNY     56  41  58 NE6       30.14F
GEORGETOWN     SUNNY     58  43  57 NE10      30.16F
EASTON         MOSUNNY   59  45  58 E7        30.20F
CAMBRIDGE      SUNNY     59  43  55 N8        30.15F
SALISBURY      SUNNY     61  45  55 NE13      30.14F
OCEAN CITY     SUNNY     54  42  64 NE13G21   30.15F
WALLOPS ISLAND MOSUNNY   56  46  69 E21       30.14F
ACCOMACK*      SUNNY     59  45  58 E10       30.12F
$$

NCZ012>017-030>032-211600-
EASTERN NORTH CAROLINA

CITY           SKY/WX    TMP DP  RH WIND       PRES   REMARKS
ELIZABETH CITY SUNNY     58  49  72 N14       30.09S
AHOSKIE*       SUNNY     58  44  60 N8        30.12F
EDENTON*       SUNNY     61  50  68 N14G20    30.09S
CURRITUCK*     CLOUDY    50  48  93 N13G18    30.11S FOG
KILL DEVIL HLS CLOUDY    47  47  98 N10G21    30.06F FOG
MANTEO         CLOUDY    48  47  96 N18G25    30.07S
CAPE HATTERAS  CLOUDY    49  49 100 NE10G30   30.02S FOG
GOLDSBORO      SUNNY     60  48  64 N13       30.09F
WASHINGTON     SUNNY     60  54  78 N13G18    30.08F
GREENVILLE     SUNNY     61  46  59 N12       30.11F
NEW BERN       CLOUDY    63  53  70 NE14G20   30.07S
WILMINGTON     SUNNY     64  52  64 N16G22    30.05S
$$

VAZ048-211600-
ELSEWHERE

CITY           SKY/WX    TMP DP  RH WIND       PRES   REMARKS
HARRISBURG PA  SUNNY     56  26  31 VRB5      30.16F
BALTIMORE      MOSUNNY   54  28  36 E3        30.17F
ANNAPOLIS      SUNNY     56  39  53 CALM      30.18F
ANDREWS AFB    SUNNY     56  38  51 VRB1      30.17F
WILMINGTON DE  SUNNY     56  32  40 VRB3      30.18F
PHILADELPHIA   MOSUNNY   56  31  38 CALM      30.18F
WILDWOOD NJ*   SUNNY     57  39  51 E9        30.17F
ATLANTIC CITY  SUNNY     58  39  49 NE8       30.16F
HENDERSON NC   SUNNY     56  35  44 N7        30.16S
GREENSBORO     MOSUNNY   59  31  34 VRB3      30.16F
ROCKY MOUNT    SUNNY     61  43  51 N13       30.12F
FAYETTEVILLE   SUNNY     62  46  55 NE12      30.12S
CHARLOTTE      MOSUNNY   62  39  42 N7        30.18S
$$

VAZ100-211600-
MARINE

STATION/POSITION TIME  TEMP    WIND        PRES    WAVE   SWELL
                       AIR SEA DIR/SP/G            HT/PER HT/PER
                 (UTC) (F)     (DEG/KT/KT) (MB)    (FT/S) (FT/S)
44066 TX TWR #4  1500   45 44   30/  8/ 10 1020.9F   5/ 8   5/ 8
CAPE MAY NJ      1500   56 53   90/  8/ 15 1021.1F
LEWES DE         1500   47 49  350/  4/  6 1021.0S
15NM E FENWICK I 1500   46 46              1020.7F   7/ 9
OCEAN-CITY-INLET 1500   49 49   40/  5/ 10 1020.8S
WACHAPREAGUE VA  1500   53 51   50/ 16/ 20 1019.9F
THOMAS POINT MD  1500   49 53   10/  7/  8 1022.6F
GOOSES REEF MD   1500   48      20/  6/  6   N/A
COVE POINT MD    1500   48     350/  9/ 11 1021.4F
SOLOMONS ISLAND  1500      53                N/A
BISHOPS HEAD MD  1500   54 52   30/  8/ 10 1020.7F
PINEY POINT MD   1500          100/  6/  9   N/A
POTOMAC MD       1500   49      30/  8/ 10 1020.8S
CAMBRIDGE MD     1500   54 56   CALM  /  4 1021.0S
LEWISETTA VA     1500   51 54   70/  3/  5 1021.3R
RAPPAHANNOCK LGT 1500           10/ 15/ 17 1020.7F
STINGRAY PT      1500   48      30/ 12/ 14 1020.8F
YORK RVR RNG VA  1500   52      10/ 12/ 14 1019.5S
YORKTOWN VA      1500   54 55   20/ 10/ 12 1020.1F
JAMESTOWN VA     1500   54      30/  4/  8   N/A
DOMINION TERM VA 1500   54      40/  5/  8 1020.3R
KIPTOPEKE VA     1500      53   50/  8/ 13   N/A
CHES BAY BRIDGE  1500   47 52  360/  9/ 10 1020.2S
CAPE HENRY VA    1500   48      10/ 15/ 18   N/A
CHESAPEAKE LGHT  1400   44      20/ 18/ 20 1019.9F
WILLOUBY STN VA  1500   48      30/ 16/ 17 1019.5S
S CRANEY ISL VA  1500          350/ 13/ 17 1020.5R
CAPE HENRY BUOY  1500      46                N/A     8/10   3/11
1ST LANDING BUOY 1500      47                N/A     8/10   7/10
64NM E OF VA BCH 1500   49 48   10/ 19/ 23 1017.0F   9/10   7/10
DUCK PIER NC     1500   46 49   10/ 22/ 25 1017.4S
44100 DUCK FRF   1500      48                N/A     9/10   3/11
44056 DUCK FRF   1500      49                N/A     8/10   3/11
OREGON INLET NC  1500   48 50  350/ 16/ 23 1017.5F
HATTERAS NC      1500   52 54   10/ 18/ 27 1016.5S
DIAMOND SHLS NC  1500   56 74  360/ 29/ 35 1014.3R  11/10   8/10
CAPE LOOKOUT NC  1400   54     360/ 20/ 26 1016.1F
FRYING PAN SHLS  1500   58 68   20/ 23/ 27 1015.5R   9/ 8   3/11
$$



USA.gov is the U.S. government's official web portal to all federal, state and local government web resources and services.